Location: Cluny
(50.9333°N, 112.8167°W)
Time: 05:24:34
(UTC-06:00)

Amateur Radio Satellites - All Passes

Search period start: 29 May 2017 04:54
Search period end: 30 May 2017 04:54
Location: Cluny, 50.9333°N, 112.8167°W

Satellite Date Start Highest point End Downlink Frequencies (MHz)
Time Altitude Azimuth
YUBILEINY 29 May 05:02:45 05:08:05 17° 315° (NW) 05:13:28 435.215
PCSat 29 May 05:03:20 05:08:24 41° 244° (WSW) 05:13:26 145.827
RS-15 29 May 05:15:21 05:27:28 59° 328° (NNW) 05:39:39 29.354- 29.394
AO-85 29 May 05:15:48 05:19:48 54° 125° (SE) 05:23:40 145.980
MOZHAYETS 4 29 May 05:27:32 05:30:22 16° 272° (W) 05:33:13
AO-7 29 May 05:48:46 05:57:11 88° 293° (WNW) 06:05:35 .
O/OREOS (USA 219) 29 May 05:53:07 05:57:16 33° 309° (NW) 06:01:26 437.305
ITAMSAT 1 29 May 05:55:52 06:00:54 49° 293° (WNW) 06:05:55 435.822/435.867
KKS-1 29 May 05:58:02 06:02:07 36° 263° (W) 06:06:13 437.445
BEESAT 2 29 May 06:04:31 06:07:51 26° 118° (ESE) 06:11:13 435.950
BEESAT 3 29 May 06:17:16 06:21:15 77° 128° (SE) 06:25:18 437.485
CUBESAT XI-V 29 May 06:20:02 06:23:47 23° 269° (W) 06:27:33 437.345
STARS 29 May 06:20:34 06:24:45 45° 261° (W) 06:28:58 437.465
SO-50 29 May 06:24:20 06:28:50 65° 45° (NE) 06:33:20 436.795
CUTE-I 29 May 06:33:23 06:36:19 15° 86° (E) 06:39:15 437.470
LilacSat-2 29 May 06:40:52 06:43:15 15° 89° (E) 06:45:36 437.200
DOVE 4 29 May 06:54:43 06:58:35 35° 97° (E) 07:02:31 437.250
AO-85 29 May 06:56:57 07:00:24 27° 326° (NW) 07:03:50 145.980
XW-2D 29 May 07:10:51 07:14:16 29° 95° (E) 07:17:40 145.860 - 145.880
STRAND 1 29 May 07:13:50 07:18:38 43° 65° (ENE) 07:23:28 437.568
XW-2B 29 May 07:18:47 07:22:21 34° 97° (E) 07:25:53 145.730 - 145.750
NUDT-PHONESAT 29 May 07:19:14 07:22:32 28° 95° (E) 07:25:49 437.300
XW-2F 29 May 07:29:09 07:32:51 43° 98° (E) 07:36:31 145.980 - 146.000
RS-15 29 May 07:31:21 07:42:59 43° 1° (N) 07:54:24 29.354- 29.394
KAITUO 1B 29 May 07:31:46 07:35:22 38° 97° (E) 07:38:55 145.475/437.950
XW-2C 29 May 07:32:29 07:36:16 49° 100° (E) 07:39:59 145.795 - 145.815
M-CUBED/EXP-1 PRIME 29 May 07:33:12 07:36:00 19° 56° (NE) 07:38:41 437.505
ITAMSAT 1 29 May 07:38:02 07:39:13 11° 314° (NW) 07:40:24 435.822/435.867
CUTE 1.7 + AOD 2 29 May 07:40:57 07:42:28 12° 86° (E) 07:43:59 437.475
BEESAT 2 29 May 07:41:30 07:45:24 49° 318° (NW) 07:49:21 435.950
AO-7 29 May 07:42:14 07:49:03 29° 314° (NW) 07:55:53 .
BEESAT 3 29 May 07:56:02 07:59:17 23° 330° (NNW) 08:02:35 437.485
SO-50 29 May 08:05:25 08:08:56 23° 244° (WSW) 08:12:27 436.795
HO-68 29 May 08:09:33 08:15:49 31° 93° (E) 08:22:00 435.675
CUTE-I 29 May 08:11:47 08:17:10 85° 105° (ESE) 08:22:32 437.470
LilacSat-2 29 May 08:14:03 08:17:53 57° 288° (WNW) 08:21:41 437.200
SEEDS 29 May 08:23:11 08:26:19 20° 91° (E) 08:29:26 437.485
DOVE 4 29 May 08:32:41 08:36:14 27° 295° (WNW) 08:39:50 437.250
NO-84 29 May 08:35:46 08:39:26 26° 136° (SE) 08:43:01 435.350 FM
XW-2A 29 May 08:35:56 08:39:01 30° 96° (E) 08:42:05 145.665 - 145.685
AO-85 29 May 08:40:26 08:42:04 12° 350° (N) 08:43:42 145.980
FO-29 29 May 08:43:46 08:46:49 16° 49° (NE) 08:49:59 435.910
XW-2D 29 May 08:45:04 08:48:25 29° 294° (WNW) 08:51:45 145.860 - 145.880
CUBEBUG 2 29 May 08:47:50 08:51:52 29° 94° (E) 08:55:58 437.445
UWE-3 29 May 08:52:09 08:55:40 21° 91° (E) 08:59:13 435.000/436.395/437.385
NUDT-PHONESAT 29 May 08:53:07 08:56:26 29° 293° (WNW) 08:59:44 437.300
XW-2B 29 May 08:53:13 08:56:25 25° 295° (WNW) 08:59:36 145.730 - 145.750
STRAND 1 29 May 08:53:25 08:57:56 32° 265° (W) 09:02:31 437.568
XW-2F 29 May 09:03:50 09:06:45 21° 297° (WNW) 09:09:39 145.980 - 146.000
KAITUO 1B 29 May 09:06:10 09:09:11 23° 296° (WNW) 09:12:11 145.475/437.950
M-CUBED/EXP-1 PRIME 29 May 09:06:13 09:10:13 55° 253° (WSW) 09:13:56 437.505
XW-2C 29 May 09:07:22 09:10:09 19° 298° (WNW) 09:12:54 145.795 - 145.815
Oscar 11 29 May 09:13:15 09:15:37 14° 87° (E) 09:17:58 .
AAUSAT CUBESAT 2 29 May 09:13:22 09:17:04 30° 95° (E) 09:20:45 437.432
CUTE 1.7 + AOD 2 29 May 09:14:39 09:18:58 89° 287° (WNW) 09:23:13 437.475
PRISM 29 May 09:21:28 09:24:48 24° 63° (ENE) 09:28:08 437.425
BEESAT 2 29 May 09:21:31 09:24:04 16° 340° (NNW) 09:26:38 435.950
AO-7 29 May 09:36:24 09:39:09 12° 340° (NNW) 09:41:56 .
BEESAT 3 29 May 09:36:41 09:38:15 12° 353° (N) 09:39:50 437.485
TIGRISAT 29 May 09:37:08 09:40:44 26° 63° (ENE) 09:44:23 435.000
AO-73 29 May 09:42:20 09:46:30 33° 95° (E) 09:50:39 145.935
RS-15 29 May 09:46:09 09:58:24 60° 33° (NNE) 10:10:09 29.354- 29.394
CUTE-I 29 May 09:52:52 09:56:37 20° 305° (NW) 10:00:21 437.470
HO-68 29 May 09:56:55 10:04:05 68° 294° (WNW) 10:11:12 435.675
ZACube-1 29 May 09:58:01 10:02:29 50° 99° (E) 10:06:57 437.345
SEEDS 29 May 09:58:12 10:02:18 50° 290° (WNW) 10:06:21 437.485
XW-2A 29 May 10:08:52 10:11:40 23° 294° (WNW) 10:14:26 145.665 - 145.685
UNISAT 6 29 May 10:09:02 10:13:13 52° 70° (ENE) 10:17:32 437.425
NO-84 29 May 10:12:21 10:16:44 89° 340° (NNW) 10:20:56 435.350 FM
AO-85 29 May 10:22:05 10:24:08 14° 16° (NNE) 10:26:11 145.980
CUBEBUG 2 29 May 10:24:17 10:28:35 40° 292° (WNW) 10:32:58 437.445
FO-29 29 May 10:25:48 10:30:58 77° 73° (ENE) 10:36:32 435.910
UWE-3 29 May 10:27:56 10:32:25 56° 290° (WNW) 10:36:59 435.000/436.395/437.385
DELFI C3 29 May 10:39:34 10:43:00 28° 95° (E) 10:46:23 145.870
NANOSAT C BR1 29 May 10:45:50 10:47:23 12° 54° (NE) 10:48:56 145.865
Oscar 11 29 May 10:47:55 10:52:18 76° 286° (WNW) 10:56:38 .
AAUSAT CUBESAT 2 29 May 10:48:51 10:52:32 31° 294° (WNW) 10:56:10 437.432
CUTE 1.7 + AOD 2 29 May 10:52:02 10:54:10 14° 304° (WNW) 10:56:16 437.475
POLYITAN 1 29 May 10:52:26 10:54:46 15° 57° (ENE) 10:57:08 437.675
DUCHIFAT 1 29 May 10:54:25 10:56:18 13° 55° (NE) 10:58:11 145.980
PRISM 29 May 10:55:58 10:59:54 42° 261° (W) 11:03:50 437.425
AIST 2D 29 May 10:56:26 10:59:09 21° 64° (ENE) 11:01:53 435.315
QB50P2 29 May 11:00:38 11:03:31 18° 59° (ENE) 11:06:26 145.880/145.840
BEESAT 2 29 May 11:01:55 11:03:26 12° 4° (N) 11:04:58 435.950
YUBILEINY 29 May 11:07:22 11:14:45 28° 57° (ENE) 11:22:03 435.215
TIGRISAT 29 May 11:13:09 11:17:14 42° 262° (W) 11:21:27 435.000
BEESAT 3 29 May 11:15:10 11:17:28 14° 17° (NNE) 11:19:45 437.485
AO-73 29 May 11:18:35 11:22:44 35° 294° (WNW) 11:26:52 145.935
EO-88 29 May 11:30:40 11:34:23 71° 103° (ESE) 11:38:03 145.990 - 145.960
ZACube-1 29 May 11:34:49 11:38:30 24° 298° (WNW) 11:42:12 437.345
EO-79 29 May 11:35:32 11:39:18 33° 66° (ENE) 11:43:06 145.935-145.965
HO-68 29 May 11:45:45 11:50:37 20° 316° (NW) 11:55:29 435.675
UNISAT 6 29 May 11:47:04 11:50:17 20° 270° (W) 11:53:33 437.425
NO-84 29 May 11:50:30 11:54:39 48° 355° (N) 11:58:34 435.350 FM
RS-15 29 May 11:59:17 12:11:16 63° 241° (WSW) 12:22:41 29.354- 29.394
AO-85 29 May 12:01:52 12:05:35 37° 39° (NE) 12:09:24 145.980
LO-87 29 May 12:03:46 12:06:46 25° 95° (E) 12:09:47 145.935 - 145.965
UWE-3 29 May 12:07:43 12:07:57 10° 308° (NW) 12:08:12 435.000/436.395/437.385
FO-29 29 May 12:13:31 12:16:56 17° 274° (W) 12:20:27 435.910
DELFI C3 29 May 12:14:17 12:17:48 31° 293° (WNW) 12:21:16 145.870
NANOSAT C BR1 29 May 12:18:11 12:22:22 78° 74° (ENE) 12:26:36 145.865
POLYITAN 1 29 May 12:25:47 12:29:59 82° 256° (WSW) 12:34:15 437.675
Oscar 11 29 May 12:25:56 12:27:41 12° 306° (NW) 12:29:26 .
DUCHIFAT 1 29 May 12:27:08 12:31:18 86° 72° (ENE) 12:35:32 145.980
AIST 2D 29 May 12:28:53 12:32:10 36° 263° (W) 12:35:30 435.315
BUGSAT 1 29 May 12:32:58 12:36:36 34° 67° (ENE) 12:40:17 437.445
QB50P2 29 May 12:34:44 12:38:53 62° 257° (WSW) 12:43:07 145.880/145.840
O/OREOS (USA 219) 29 May 12:39:14 12:43:15 29° 50° (NE) 12:47:12 437.305
BEESAT 2 29 May 12:39:31 12:42:40 21° 28° (NNE) 12:45:47 435.950
BEESAT 3 29 May 12:52:15 12:56:05 39° 40° (NE) 12:59:52 437.485
Oscar 19 29 May 12:52:27 12:56:53 29° 61° (ENE) 13:01:18 437.125/150
Gurwin Techsat 1B 29 May 12:56:21 13:00:19 22° 56° (NE) 13:04:18 435.225
YUBILEINY 29 May 13:03:52 13:12:46 87° 262° (W) 13:21:38 435.215
EO-88 29 May 13:05:45 13:07:34 13° 301° (WNW) 13:09:23 145.990 - 145.960
ESTCUBE 1 29 May 13:08:01 13:12:33 70° 103° (ESE) 13:17:02 437.505/2401.250
EO-79 29 May 13:11:22 13:15:04 30° 265° (W) 13:18:49 145.935-145.965
AO-7 29 May 13:12:23 13:17:45 19° 35° (NE) 13:23:09 .
SPROUT 29 May 13:19:46 13:23:28 28° 94° (E) 13:27:10 437.525
NO-84 29 May 13:28:35 13:32:42 59° 16° (NNE) 13:36:29 435.350 FM
LO-87 29 May 13:37:07 13:40:13 28° 293° (WNW) 13:43:19 145.935 - 145.965
AO-85 29 May 13:42:16 13:45:58 36° 238° (WSW) 13:49:49 145.980
VELOX 1 29 May 13:49:45 13:54:02 51° 100° (E) 13:58:19 145.980
NANOSAT C BR1 29 May 13:56:37 13:58:39 13° 273° (W) 14:00:40 145.865
UKube-1 29 May 14:01:00 14:04:04 19° 91° (E) 14:07:07 .
ITAMSAT 1 29 May 14:03:11 14:05:58 15° 51° (NE) 14:08:45 435.822/435.867
DUCHIFAT 1 29 May 14:06:02 14:07:36 12° 273° (W) 14:09:10 145.980
POLYITAN 1 29 May 14:06:04 14:06:30 10° 275° (W) 14:06:56 437.675
BUGSAT 1 29 May 14:08:37 14:12:01 27° 265° (W) 14:15:29 437.445
RS-15 29 May 14:13:57 14:21:01 18° 266° (W) 14:27:56 29.354- 29.394
DX 1 29 May 14:14:49 14:18:48 34° 97° (E) 14:22:45 434.975-435.025
BEESAT 2 29 May 14:16:54 14:21:01 84° 51° (NE) 14:25:04 435.950
O/OREOS (USA 219) 29 May 14:18:31 14:22:49 44° 250° (WSW) 14:27:04 437.305
50 SAT 29 May 14:26:06 14:29:30 69° 103° (ESE) 14:32:53 437.505
BEESAT 3 29 May 14:29:59 14:33:38 33° 240° (WSW) 14:37:14 437.485
Oscar 19 29 May 14:30:54 14:35:58 52° 260° (W) 14:41:04 437.125/150
Gurwin Techsat 1B 29 May 14:34:27 14:39:45 75° 255° (WSW) 14:45:07 435.225
ESTCUBE 1 29 May 14:45:47 14:48:53 18° 302° (WNW) 14:51:58 437.505/2401.250
SPROUT 29 May 14:55:30 14:59:27 37° 293° (WNW) 15:03:23 437.525
AO-7 29 May 15:00:52 15:08:51 55° 59° (ENE) 15:16:54 .
YUBILEINY 29 May 15:01:56 15:08:20 23° 285° (WNW) 15:14:44 435.215
NO-84 29 May 15:06:27 15:10:15 44° 217° (SW) 15:13:45 435.350 FM
VELOX 1 29 May 15:26:46 15:30:13 23° 299° (WNW) 15:33:38 145.980
UKube-1 29 May 15:36:13 15:40:27 56° 290° (WNW) 15:44:39 .
ITAMSAT 1 29 May 15:39:26 15:44:34 71° 71° (ENE) 15:49:46 435.822/435.867
MOZHAYETS 4 29 May 15:39:40 15:41:43 13° 86° (E) 15:43:46
DX 1 29 May 15:51:07 15:54:56 31° 296° (WNW) 15:58:44 434.975-435.025
ITUPSAT 1 29 May 15:54:19 15:58:25 27° 94° (E) 16:02:30 437.325
BEESAT 2 29 May 15:55:57 15:58:12 15° 248° (WSW) 16:00:27 435.950
50 SAT 29 May 16:00:34 16:01:52 12° 301° (WNW) 16:03:11 437.505
Gurwin Techsat 1B 29 May 16:18:24 16:20:38 13° 276° (W) 16:22:53 435.225
BEESAT 29 May 16:25:15 16:29:56 50° 100° (E) 16:34:35 436.000
DOVE 4 29 May 16:31:42 16:32:16 10° 54° (NE) 16:32:50 437.250
AO-7 29 May 16:53:59 17:01:50 45° 261° (W) 17:09:45 .
HO-68 29 May 17:01:23 17:04:08 13° 34° (NE) 17:06:52 435.675
MOZHAYETS 4 29 May 17:14:54 17:19:35 88° 99° (E) 17:24:14
ITAMSAT 1 29 May 17:20:53 17:24:35 20° 270° (W) 17:28:19 435.822/435.867
LilacSat-2 29 May 17:27:38 17:30:12 17° 61° (ENE) 17:32:46 437.200
ITUPSAT 1 29 May 17:31:50 17:36:27 47° 293° (WNW) 17:41:03 437.325
KKS-1 29 May 17:43:31 17:47:25 29° 95° (E) 17:51:18 437.445
XW-2D 29 May 17:56:42 18:00:05 30° 67° (ENE) 18:03:30 145.860 - 145.880
CUTE-I 29 May 17:59:25 18:04:18 39° 64° (ENE) 18:09:13 437.470
NUDT-PHONESAT 29 May 18:03:14 18:06:25 27° 66° (ENE) 18:09:38 437.300
BEESAT 29 May 18:03:28 18:07:28 27° 299° (WNW) 18:11:27 436.000
XW-2B 29 May 18:04:37 18:08:06 35° 68° (ENE) 18:11:38 145.730 - 145.750
DOVE 4 29 May 18:04:49 18:09:13 66° 73° (ENE) 18:13:27 437.250
STARS 29 May 18:04:56 18:08:25 22° 93° (E) 18:11:52 437.465
CUBESAT XI-V 29 May 18:10:02 18:14:41 64° 102° (ESE) 18:19:16 437.345
PCSat 29 May 18:10:10 18:12:07 12° 102° (ESE) 18:14:06 145.827
XW-2F 29 May 18:14:31 18:18:08 42° 70° (ENE) 18:21:48 145.980 - 146.000
KAITUO 1B 29 May 18:16:18 18:19:48 37° 69° (ENE) 18:23:21 145.475/437.950
XW-2C 29 May 18:18:12 18:21:54 48° 71° (ENE) 18:25:39 145.795 - 145.815
CUTE 1.7 + AOD 2 29 May 18:37:48 18:40:36 17° 59° (ENE) 18:43:27 437.475
HO-68 29 May 18:43:26 18:50:00 40° 58° (ENE) 18:56:34 435.675
MOZHAYETS 4 29 May 18:53:18 18:56:07 16° 304° (NW) 18:58:54
LilacSat-2 29 May 19:00:18 19:04:05 56° 260° (W) 19:07:56 437.200
XW-2A 29 May 19:12:07 19:14:52 23° 66° (ENE) 19:17:38 145.665 - 145.685
SEEDS 29 May 19:19:18 19:22:53 27° 64° (ENE) 19:26:29 437.485
KKS-1 29 May 19:19:57 19:24:03 37° 294° (WNW) 19:28:09 437.445
ZACube-1 29 May 19:25:51 19:27:11 11° 53° (NE) 19:28:33 437.345
XW-2D 29 May 19:30:57 19:34:16 28° 265° (W) 19:37:38 145.860 - 145.880
NUDT-PHONESAT 29 May 19:36:57 19:40:16 30° 264° (W) 19:43:38 437.300
XW-2B 29 May 19:39:14 19:42:23 24° 267° (W) 19:45:34 145.730 - 145.750
CUTE-I 29 May 19:39:29 19:44:23 38° 263° (W) 19:49:20 437.470
STARS 29 May 19:40:46 19:45:00 48° 291° (WNW) 19:49:14 437.465
DOVE 4 29 May 19:44:37 19:47:21 16° 270° (W) 19:50:01 437.250
CUBESAT XI-V 29 May 19:48:13 19:51:38 21° 301° (WNW) 19:55:02 437.345
PCSat 29 May 19:49:08 19:54:30 66° 122° (ESE) 19:59:54 145.827
XW-2F 29 May 19:49:39 19:52:29 20° 268° (W) 19:55:21 145.980 - 146.000
CUBEBUG 2 29 May 19:50:45 19:54:41 40° 68° (ENE) 19:58:45 437.445
KAITUO 1B 29 May 19:50:57 19:53:57 22° 267° (W) 19:56:59 145.475/437.950
XW-2C 29 May 19:53:45 19:56:23 18° 269° (W) 19:59:02 145.795 - 145.815
UWE-3 29 May 19:53:53 19:57:34 29° 64° (ENE) 20:01:20 435.000/436.395/437.385
AAUSAT CUBESAT 2 29 May 20:07:52 20:11:46 39° 68° (ENE) 20:15:40 437.432
CUTE 1.7 + AOD 2 29 May 20:11:42 20:15:58 69° 258° (WSW) 20:20:17 437.475
Oscar 11 29 May 20:12:25 20:15:43 21° 61° (ENE) 20:19:01 .
ISS 29 May 20:29:02 20:31:37 21° 144° (SE) 20:34:12 437.550
HO-68 29 May 20:30:31 20:37:33 56° 259° (WSW) 20:44:39 435.675
AO-73 29 May 20:42:23 20:46:28 45° 69° (ENE) 20:50:41 145.935
XW-2A 29 May 20:44:35 20:47:32 28° 264° (W) 20:50:32 145.665 - 145.685
SEEDS 29 May 20:54:27 20:58:26 39° 263° (W) 21:02:28 437.485
STRAND 1 29 May 20:57:46 21:02:54 61° 102° (ESE) 21:08:00 437.568
Tancredo 1 29 May 20:57:46 21:00:42 41° 154° (SSE) 21:03:37 437.200
ZACube-1 29 May 20:58:22 21:02:38 69° 73° (ENE) 21:07:02 437.345
CUBEBUG 2 29 May 21:27:59 21:31:28 25° 268° (W) 21:35:04 437.445
DELFI C3 29 May 21:29:28 21:33:03 32° 67° (ENE) 21:36:37 145.870
UWE-3 29 May 21:30:00 21:33:56 36° 264° (W) 21:38:00 435.000/436.395/437.385
PCSat 29 May 21:33:26 21:38:18 33° 323° (NW) 21:43:13 145.827
AAUSAT CUBESAT 2 29 May 21:43:52 21:47:21 25° 267° (W) 21:50:51 437.432
Oscar 11 29 May 21:47:15 21:51:31 54° 260° (W) 21:55:50 .
ISS 29 May 22:04:27 22:07:45 73° 163° (SSE) 22:11:03 437.550
EO-88 29 May 22:12:50 22:16:28 65° 73° (ENE) 22:20:08 145.990 - 145.960
M-CUBED/EXP-1 PRIME 29 May 22:14:15 22:17:21 37° 105° (ESE) 22:20:24 437.505
AO-73 29 May 22:19:30 22:22:56 23° 268° (W) 22:26:28 145.935
SO-50 29 May 22:23:24 22:27:31 34° 120° (ESE) 22:31:36 436.795
HO-68 29 May 22:24:50 22:26:57 11° 280° (W) 22:29:05 435.675
PRISM 29 May 22:32:42 22:35:32 18° 91° (E) 22:38:21 437.425
Tancredo 1 29 May 22:33:15 22:36:19 80° 350° (N) 22:39:24 437.200
ZACube-1 29 May 22:36:52 22:39:27 15° 273° (W) 22:42:03 437.345
ESTCUBE 1 29 May 22:37:14 22:40:19 18° 58° (ENE) 22:43:24 437.505/2401.250
STRAND 1 29 May 22:37:34 22:41:43 25° 301° (WNW) 22:45:51 437.568
LO-87 29 May 22:44:44 22:47:35 23° 65° (ENE) 22:50:25 145.935 - 145.965
TIGRISAT 29 May 22:59:07 23:03:10 29° 94° (E) 23:07:13 435.000
DELFI C3 29 May 23:04:24 23:07:51 28° 265° (W) 23:11:18 145.870
FO-29 29 May 23:12:30 23:18:46 48° 99° (E) 23:25:44 435.910
VELOX 1 29 May 23:17:54 23:20:05 14° 55° (NE) 23:22:16 145.980
PCSat 29 May 23:20:08 23:23:24 16° 348° (NNW) 23:26:41 145.827
UNISAT 6 29 May 23:31:40 23:36:15 60° 101° (E) 23:40:53 437.425
ISS 29 May 23:40:59 23:44:18 77° 4° (N) 23:47:36 437.550
EO-88 29 May 23:48:56 23:50:35 12° 272° (W) 23:52:13 145.990 - 145.960
M-CUBED/EXP-1 PRIME 29 May 23:49:16 23:51:39 19° 304° (NW) 23:54:00 437.505
AIST 2D 29 May 23:50:03 23:51:43 13° 89° (E) 23:53:23 435.315
SO-50 30 May 00:03:28 00:07:52 46° 320° (NW) 00:12:16 436.795
PRISM 30 May 00:07:09 00:11:08 53° 290° (WNW) 00:15:05 437.425
POLYITAN 1 30 May 00:07:17 00:08:58 12° 87° (E) 00:10:38 437.675
Tancredo 1 30 May 00:09:03 00:12:07 85° 199° (SSW) 00:15:12 437.200
ESTCUBE 1 30 May 00:12:05 00:16:37 73° 256° (WSW) 00:21:12 437.505/2401.250
QB50P2 30 May 00:15:27 00:18:02 16° 89° (E) 00:20:38 145.880/145.840
YUBILEINY 30 May 00:17:02 00:23:32 24° 76° (ENE) 00:30:03 435.215
SPROUT 30 May 00:17:35 00:21:32 39° 68° (ENE) 00:25:31 437.525
LO-87 30 May 00:17:42 00:20:54 31° 263° (W) 00:24:07 145.935 - 145.965
RS-15 30 May 00:23:27 00:29:08 15° 91° (E) 00:34:51 29.354- 29.394
TIGRISAT 30 May 00:35:37 00:39:57 41° 293° (WNW) 00:44:19 435.000
EO-79 30 May 00:50:22 00:54:09 30° 95° (E) 00:57:56 145.935-145.965
VELOX 1 30 May 00:51:27 00:55:52 84° 74° (ENE) 01:00:18 145.980
FO-29 30 May 00:57:51 01:03:47 42° 296° (WNW) 01:10:24 435.910
UKube-1 30 May 00:59:48 01:03:34 31° 64° (ENE) 01:07:23 .
50 SAT 30 May 01:02:41 01:06:04 56° 72° (ENE) 01:09:27 437.505
PCSat 30 May 01:05:34 01:09:02 17° 15° (NNE) 01:12:29 145.827
UNISAT 6 30 May 01:09:06 01:12:36 22° 300° (WNW) 01:16:08 437.425
DX 1 30 May 01:14:45 01:19:00 57° 70° (ENE) 01:23:17 434.975-435.025
ISS 30 May 01:17:31 01:20:46 54° 202° (SSW) 01:23:59 437.550
AIST 2D 30 May 01:21:47 01:25:19 59° 287° (WNW) 01:28:49 435.315
ITUPSAT 1 30 May 01:32:30 01:33:25 11° 49° (NE) 01:34:21 437.325
NANOSAT C BR1 30 May 01:32:51 01:37:07 72° 102° (ESE) 01:41:22 145.865
POLYITAN 1 30 May 01:41:04 01:45:23 88° 285° (WNW) 01:49:40 437.675
DUCHIFAT 1 30 May 01:41:27 01:45:43 79° 104° (ESE) 01:49:58 145.980
BUGSAT 1 30 May 01:44:27 01:48:07 29° 96° (E) 01:51:47 437.445
Tancredo 1 30 May 01:44:59 01:47:36 26° 212° (SSW) 01:50:13 437.200
SO-50 30 May 01:46:15 01:49:23 18° 343° (NNW) 01:52:30 436.795
QB50P2 30 May 01:50:02 01:54:17 68° 288° (WNW) 01:58:32 145.880/145.840
SPROUT 30 May 01:54:02 01:57:35 25° 266° (W) 02:01:09 437.525
BEESAT 30 May 02:00:48 02:03:56 18° 55° (NE) 02:07:03 436.000
YUBILEINY 30 May 02:10:24 02:19:10 90° 23° (NNE) 02:28:02 435.215
EO-79 30 May 02:26:05 02:29:57 34° 294° (WNW) 02:33:48 145.935-145.965
RS-15 30 May 02:26:55 02:38:33 56° 115° (ESE) 02:50:24 29.354- 29.394
VELOX 1 30 May 02:30:48 02:32:56 13° 273° (W) 02:35:03 145.980
UKube-1 30 May 02:35:37 02:39:33 34° 263° (W) 02:43:31 .
Oscar 19 30 May 02:37:12 02:42:02 38° 97° (E) 02:46:48 437.125/150
50 SAT 30 May 02:37:44 02:39:16 12° 270° (W) 02:40:50 437.505
MOZHAYETS 4 30 May 02:45:37 02:49:13 23° 60° (ENE) 02:52:50
Gurwin Techsat 1B 30 May 02:45:44 02:50:24 30° 94° (E) 02:55:01 435.225
FO-29 30 May 02:45:45 02:47:27 11° 317° (NW) 02:49:11 435.910
PCSat 30 May 02:48:54 02:54:00 38° 40° (NE) 02:59:02 145.827
DX 1 30 May 02:52:28 02:55:33 19° 269° (W) 02:58:38 434.975-435.025
ISS 30 May 02:54:55 02:56:44 14° 221° (SW) 02:58:32 437.550
O/OREOS (USA 219) 30 May 02:59:42 03:01:08 11° 97° (E) 03:02:33 437.305
ITUPSAT 1 30 May 03:05:35 03:10:14 54° 69° (ENE) 03:14:56 437.325
NANOSAT C BR1 30 May 03:09:39 03:12:21 17° 302° (WNW) 03:15:03 145.865
DUCHIFAT 1 30 May 03:18:21 03:20:51 15° 303° (WNW) 03:23:21 145.980
POLYITAN 1 30 May 03:18:24 03:20:31 14° 304° (NW) 03:22:39 437.675
BUGSAT 1 30 May 03:19:45 03:23:30 33° 293° (WNW) 03:27:16 437.445
QB50P2 30 May 03:28:14 03:29:17 11° 307° (NW) 03:30:21 145.880/145.840
SO-50 30 May 03:28:50 03:31:32 15° 8° (N) 03:34:13 436.795
BEESAT 30 May 03:36:20 03:41:07 83° 256° (WSW) 03:45:56 436.000
CUBESAT XI-V 30 May 03:42:34 03:45:44 18° 58° (ENE) 03:48:54 437.345
ITAMSAT 1 30 May 03:48:07 03:51:29 17° 88° (E) 03:54:50 435.822/435.867
AO-85 30 May 04:02:18 04:05:01 17° 115° (ESE) 04:07:40 145.980
YUBILEINY 30 May 04:10:12 04:17:18 27° 304° (NW) 04:24:29 435.215
Oscar 19 30 May 04:16:37 04:21:21 37° 296° (WNW) 04:26:02 437.125/150
MOZHAYETS 4 30 May 04:21:29 04:26:02 56° 260° (W) 04:30:37
Gurwin Techsat 1B 30 May 04:25:26 04:30:34 49° 293° (WNW) 04:35:39 435.225
BEESAT 3 30 May 04:26:35 04:27:40 11° 109° (ESE) 04:28:45 437.485
PCSat 30 May 04:32:19 04:37:37 53° 241° (WSW) 04:42:52 145.827
O/OREOS (USA 219) 30 May 04:35:08 04:39:44 79° 116° (ESE) 04:44:20 437.305
ITUPSAT 1 30 May 04:44:36 04:48:23 23° 268° (W) 04:52:12 437.325
